ANGELS

Last updated on Sun Apr 27 2025 00:02:35 GMT+0000 (Coordinated Universal Time)

1 44876U 19092D 25116.09826952 .00039283 00000+0 92334-3 0 9994 2 44876 97.4597 313.4661 0005918 284.7267 75.3324 15.41880095297288

Satellite not in orbit

ANGELS